www.pogodaiklimat.ru
Время
(UTC), дата
18 20.10
21 20.10
00 21.10
03 21.10
06 21.10
09 21.10
12 21.10
15 21.10
18 21.10
21 21.10
00 22.10
03 22.10
06 22.10
09 22.10
12 22.10
15 22.10
18 22.10
21 22.10
00 23.10
03 23.10
06 23.10
09 23.10
12 23.10
15 23.10
18 23.10
21 23.10
00 24.10
03 24.10
06 24.10
09 24.10
12 24.10
15 24.10
18 24.10
21 24.10
00 25.10
03 25.10
06 25.10
09 25.10
12 25.10
15 25.10
18 25.10
21 25.10
00 26.10
03 26.10
06 26.10
09 26.10
12 26.10
15 26.10
18 26.10
21 26.10
00 27.10
03 27.10
06 27.10
09 27.10
12 27.10
Ветер
(напр.,м/с)
Видим. Явления Облачность Т
(С)
Тd
(С)
f
(%)
Тe
(С)
Тes
(С)
Комфортность P
(гПа)
Po
(гПа)
Тmin
(С)
Tmax
(С)
R
(мм)
R24
(мм)
S
(см)
ЮЗ 3 20 км {ливн. снег, туман} 10/6 600 м
[Cb cap Ac As]
+0.1 -0.5 96 -5 -5 1005.4 979.8
ЮЗ 3 10 км слаб. снег 10/0
[As op]
0.0 -0.6 96 -5 -5 1004.5 978.9
З 3 20 км {снег} 10/10 300 м
[Ns]
-0.2 -0.7 96 -5 -5 1004.1 978.6
З 3 20 км 10/10 300 м
[Ns]
-0.3 -1.0 95 -5 -5 1003.8 978.2 -0.3 0.0 3
штиль 0 10 км снег 10/10 300 м
[Sc]
+0.1 -0.6 95 -1 -1 1003.9 978.3
ЮЗ 2 10 км в посл. час ливневой снег 9/8 300 м
[Cb cap Ci fib]
+0.6 -1.0 89 -3 -3 1003.5 978.0
З 2 10 км {ливн. снег} 9/9 300 м
[Cb cap Ci fib]
+0.1 -0.9 93 -4 -4 1003.5 978.0
З 2 10 км {ливн. снег} 10/10 600 м
[Cb cap]
-0.4 -1.5 92 -4 -4 1004.0 978.5 +1.0 2
СЗ 5 4000 м снег {ливн. снег} 10/10 300 м
[Frnb Ns]
-1.4 -2.0 96 -8 -8 1004.3 978.6
З 5 50 км {ливн. снег, снег} 9/9 300 м
[Cb cap]
-2.3 -3.4 92 -9 -9 1004.5 978.7
СЗ 4 2000 м снег {ливн. снег} 10/10 300 м
[Frnb Ns]
-2.8 -3.8 93 -9 -9 1004.9 979.1
СЗ 4
{10}
20 км {снег} 9/9 300 м
[Cb cap]
-3.9 -5.3 90 -10 -10 1006.5 980.5 -3.9 2 8
СЗ 4 20 км слаб. ливневой снег 10/9 300 м
[Cb cap Ac und]
-5.0 -7.4 83 -11 -11 1008.7 982.6 -5.0
СЗ 4
{10}
20 км крупа {ливн. снег} 10/10 300 м
[Cb cap]
-4.9 -7.6 81 -11 -11 1010.9 984.7
СЗ 5 20 км слаб. ливневой снег 10/10 300 м
[Cb cap]
-5.6 -9.2 76 -13 -13 1013.4 987.1
СЗ 4 10 км слаб. ливневой снег 10/10 600 м
[Cb cap]
-6.0 -7.7 88 -13 -13 1015.5 989.1 -3.9 0.4
СЗ 3 10 км слаб. снег 10/10 600 м -6.2 -8.2 86 -12 -12 1016.8 990.3
З 4 10 км слаб. снег 10/0
[Ns]
-6.1 -8.0 86 -13 -13 1017.5 991.0
СЗ 3 10 км слаб. снег 10/10 300 м
[Ns]
-5.9 -7.6 88 -12 -12 1018.3 991.8
З 3 20 км 10/10 300 м
[Sc]
-6.1 -7.6 89 -12 -12 1019.1 992.6 -6.2 0.0 8
СЗ 3 20 км {снег} 9/9 300 м
[Sc]
-5.5 -8.0 83 -11 -11 1019.4 993.0 -6.3
ЮЗ 1 20 км в посл. час ливневой снег 9/8 300 м
[Cb cap Ac cast]
-3.5 -7.2 76 -6 -5 1019.1 992.8
Ю 2 20 км {ливн. снег} 8/6 300 м
[Cb cap Ac lent]
-4.0 -9.1 68 -8 -8 1018.2 991.9
ЮВ 2 20 км 6/0 2000 м
[Ac trans Ci fib]
-5.6 -9.3 75 -10 -10 1017.1 990.7 -3.1 0.0
ЮВ 3 20 км 6/0
[Ci fib]
-6.6 -9.2 82 -12 -12 1015.7 989.2
ЮВ 4 50 км ясно -6.9 -9.0 85 -14 -14 1012.5 986.1
ЮВ 6-10
{10}
50 км 8/0
[Ci]
-6.7 -9.5 80 -15 -15 1009.0 982.7
ЮВ 5
{10}
4000 м снег 10/10 300 м
[Ns]
-5.9 -7.4 89 -13 -13 1005.3 979.1 -7.0 0.3 5
ЮВ 6
{10}
2000 м снег 10/10 300 м
[Ns]
-4.5 -5.6 92 -12 -12 1002.9 977.0
ЮВ 4 10 км слаб. ливневой снег 10/8 300 м
[Cb cap As op]
-2.7 -4.0 91 -9 -9 1000.8 975.1
ЮВ 4 10 км слаб. ливневой снег 10/8 300 м
[Cb cap As op]
-1.8 -3.2 90 -8 -8 1000.2 974.6
ЮВ 3 1000 м сильн. снег {ливн. снег} 10/10 300 м
[Frnb Ns]
-1.8 -2.4 96 -7 -7 1000.1 974.5 -1.8 4
ЮВ 2 2000 м снег {ливн. снег} 10/10 300 м
[Frnb Ns]
-1.8 -2.4 96 -6 -6 999.6 974.0
ЮВ 2 1000 м снег {туман} [диам. гололёда 1 мм] 10/10 300 м
[Frnb Ns]
-1.7 -2.3 96 -6 -6 999.6 974.0
СЗ 4 2000 м дымка {снег, туман} [диам. гололёда 1 мм] 10/10 300 м
[Ns]
-0.2 -0.7 96 -6 -6 1000.4 974.9
З 4 10 км [диам. гололёда 1 мм] 9/8 300 м
[Sc Ac As]
-0.7 -1.5 94 -6 -6 1003.0 977.5 -1.9 6 10
СЗ 4 10 км 10/10 300 м
[Cb cap]
-0.7 -1.8 92 -6 -6 1005.0 979.3
СЗ 3 2000 м слаб. ливневой снег 10/10 300 м
[Cb cap]
-1.0 -1.9 94 -6 -6 1006.7 981.0
ЮЗ 1 20 км {ливн. снег} 9/9 300 м
[Sc Ac lent]
-0.8 -1.7 94 -3 -3 1007.5 981.8
З 3 20 км 10/10 300 м
[Sc]
-1.5 -2.4 94 -7 -7 1007.9 982.2 -0.2 0.5
СЗ 1 50 км слаб. ливневой снег 10/10 300 м
[Cb cap]
-2.6 -3.5 94 -5 -5 1008.0 982.1
СЗ 1 50 км {ливн. снег} 9/9 300 м
[Sc]
-3.0 -3.9 93 -5 -5 1008.2 982.2
СЗ 2 10 км слаб. снег 10/10 300 м
[Ns]
-3.5 -4.2 95 -8 -8 1008.8 982.8
СЗ 1 20 км слаб. снег 10/0 2000 м
[As op]
-3.7 -4.4 95 -6 -6 1009.8 983.8 -3.7 0.3 9
С 2 20 км слаб. снег 10/3 300 м
[Sc Ac As Cs]
-2.8 -3.9 92 -7 -7 1011.5 985.6 -3.8
С 3 20 км в посл. час ливневой снег 9/9 600 м
[Cb cap Ac As]
-1.6 -4.0 84 -7 -6 1014.1 988.2
С 3 50 км в посл. час ливневой снег 9/9 300 м
[Cb cap Ac cast]
-1.6 -4.8 79 -6 -6 1017.0 991.0
С 4
{10}
50 км 10/10 300 м
[Cb cap]
-2.7 -5.6 80 -9 -9 1020.2 994.0 -1.1 0.0
С 4
{10}
50 км 10/10 300 м
[Cb cap]
-3.9 -7.2 78 -10 -10 1023.0 996.6
С 3 50 км 8/8 300 м
[Sc]
-4.9 -7.7 81 -10 -10 1025.1 998.5
С 2 50 км 10/10 300 м
[Sc]
-4.9 -7.7 81 -9 -9 1026.9 1000.3
С 2 20 км 10/10 300 м
[Sc]
-5.3 -7.8 83 -10 -10 1028.5 1001.8 -5.7 9
С 2 50 км 9/9 300 м
[Cb cap]
-5.4 -8.0 82 -10 -10 1029.9 1003.2 -5.8
СЗ 2 20 км 9/9 300 м
[Cb cap]
-4.2 -8.0 75 -8 -8 1030.3 1003.7
З 2 20 км 10/10 300 м
[Sc]
-4.7 -7.6 80 -9 -9 1030.0 1003.4
Местоположение метеостанции Чердынь (Пермский край, Россия): широта 60.40 долгота 56.52 высота над уровнем моря 207 м.
В архиве по умолчанию представлена погода в Чердыни за последнюю неделю. Архивные данные за месяц целиком и за предыдущие месяцы, начиная с января 2011 года, Вы можете получить, выбрав интересующий диапазон дат из раскрывающегося списка и нажав кнопку "Найти!".
*Определитесь, кто Вы:
Внимание! Время в таблицах - всемирное. Для получения местного времени необходимо прибавить поправку, которая равна 5 ч.
Смотрите также архив погоды в соседних городах и на ближайших метеорологических станциях:
Партнеры нашего сайта:      
Пояснения к столбцам:
  • Ветер - указаны скорость ветра в м/с - средняя за 10 мин, порывы в срок и между сроками (в фигурных скобках) и направление, откуда дует ветер: С - северный,
  • СВ - северо-восточный, В - восточный, ЮВ - юго-восточный, Ю - южный, ЮЗ - юго-западный, З - западный, СЗ - северо-западный.
  • Видимость - горизонтальная дальность видимости в метрах или километрах. При видимости от 1 до 10 км при отсутствии осадков обычно наблюдается дымка, при ухудшении видимости до 1 км и менее - туман. В сухую погоду видимость может ухудшаться дымом, пылью или мглою.
  • Явления - указаны атмосферные явления, наблюдавшиеся в срок или в последний час перед сроком; фигурными скобками обозначены явления, наблюдавшиеся между сроками (за 1-3 часа до срока); квадратными скобками обозначены град или гололедные отложения с указанием их диаметра в мм.
  • Облачность - указаны через наклонную черту общая и нижняя облачность в баллах и высота нижней границы облаков в метрах; квадратными скобками обозначены формы облаков: Ci - перистые, Cs - перисто-слоистые, Cc - перисто-кучевые, Ac - высококучевые, As - высокослоистые, Sc - слоисто-кучевые, Ns - слоисто-дождевые, Cu - кучевые, Cb - кучево-дождевые. Подробнее классификацию облаков см. в Атласе облаков (PDF).
  • T - Температура воздуха - температура, измеренная на высоте 2 м над землей.
  • Td - Температура точки росы - температура, при понижении до которой содержащийся в воздухе водяной пар достигнет насыщения.
  • f - Относительная влажность воздуха - влажноcть воздуха, измеренная на высоте 2 м над землей.
  • Te - Эффективная температура - температура, которую ощущает одетый по сезону человек в тени. Характеристика душности погоды. При расчете учитывается влияние влажности воздуха и скорости ветра на теплоощущения человека.
  • Tes - Эффективная температура на солнце - температура, которую ощущает человек, с поправкой на солнечный нагрев. Характеристика знойности погоды. Зависит от высоты солнца над горизонтом, облачности и скорости ветра. Ночью, в пасмурную погоду, а также при ветре 12 м/с и более поправка равна нулю.
  • P - Атмосферное давление - приведенное к уровню моря атмосферное давление.
  • Po - Атмосферное давление - измеренное на уровне метеостанции атмосферное давление.
  • Tmin - Минимальная температура - минимум температуры воздуха на высоте 2 м над землей.
  • Tmax - Максимальная температура - максимум температуры воздуха на высоте 2 м над землей.
  • R - Количество осадков - Количество выпавших осадков за период времени, мм. При наведении курсора мыши на число - период времени, за который выпало указанное количество осадков.
  • R24 - Количество осадков - Количество выпавших осадков за 24 часа, мм.
  • S - Снежный покров - Высота снежного покрова, см. При наведении курсора мыши на число - состояние снежного покрова и степень покрытия местности в баллах.